Regional Weather Roundup
Issued by NWS Newport/Morehead, NC

Current Version | Previous Version | Graphics & Text | Print | Product List | Glossary Off
Versions: 1 2 3 4 5 6 7 8 9 10 11 12 13 14 15 16 17 18 19 20 21 22 23 24 25 26 27 28 29 30 31 32 33 34 35 36 37 38 39 40 41 42 43 44 45 46 47 48 49 50

000
ASUS42 KMHX 181613
RWRMHX
WEATHER ROUNDUP FOR EASTERN NORTH CAROLINA
NATIONAL WEATHER SERVICE NEWPORT/MOREHEAD CITY NC
1100 AM EST WED JAN 18 2017

NOTE: "FAIR" INDICATES FEW OR NO CLOUDS BELOW 12,000 FEET
WITH NO SIGNIFICANT WEATHER AND/OR OBSTRUCTIONS TO VISIBILITY

NCZ015>017-031-032-045>047-102-103-181700-
NORTH COAST

CITY           SKY/WX    TMP DP  RH WIND       PRES   REMARKS
EDENTON        PTSUNNY   63  59  86 CALM      29.93F
ELIZABETH CITY CLOUDY    65  58  78 W13       29.91S
KITTY HAWK     NOT AVBL
MANTEO         CLOUDY    58  58 100 W8        29.91F

$$

NCZ045>047-081-094-103-104-181700-
CENTRAL COAST

CITY           SKY/WX    TMP DP  RH WIND       PRES   REMARKS
FRISCO         LGT RAIN  60  57  89 W14G21    29.93F FOG

$$

NCZ095-097-098-100-101-181700-
SOUTHERN COAST

CITY           SKY/WX    TMP DP  RH WIND       PRES   REMARKS
BEAUFORT       RAIN      58  56  93 W10       29.97F FOG
CEDAR ISLAND   NOT AVBL
JACKSONVILLE   LGT RAIN  63  62  97 W6        29.97F FOG
PINEY ISLAND   RAIN     N/A N/A N/A W12       29.96
WILMINGTON     CLOUDY    68  60  75 W10       29.99F


$$

NCZ011>013-027>030-043-044-078>080-089-090>093-098-181700-
COASTAL PLAIN

CITY           SKY/WX    TMP DP  RH WIND       PRES   REMARKS
AHOSKIE          N/A     65  50  58 W6        29.94F
CLINTON        CLOUDY    64  60  87 W5        29.99F
ELIZABETHTOWN  CLOUDY    64  60  86 W3        30.00F
GOLDSBORO      CLOUDY    64  64  97 W12       29.95F
GREENVILLE     CLOUDY    63  59  88 W6        29.98S
HAVELOCK       LGT RAIN  63  59  87 W13       29.97F
KENANSVILLE    CLOUDY    63  59  88 W6        29.99F
KINSTON        CLOUDY    63  59  88 SW7       29.97F
NEW BERN       CLOUDY    62  59  90 W8        29.97F
RICHLANDS      LGT RAIN  62  60  93 SW7       29.99F
ROCKY MOUNT    MOSUNNY   67  56  67 W13G20    29.96F
WASHINGTON     PTSUNNY   63  59  86 W9        29.95S
WHITEVILLE     CLOUDY    68  60  74 W6        30.00F

$$

AMZ130-135-150-152-154-156-158-170-250-252-270-ANZ085-086-088-633-658-670-181700-
MARINE OBSERVATIONS

STATION/POSITION TIME  TEMP    WIND        PRES    WAVE   SWELL
                       AIR SEA DIR/SP/G            HT/PER HT/PER
                 (UTC) (F)     (DEG/KT/KT) (MB)    (FT/S) (FT/S)
CHESAPEAKE LIGHT NOT AVBL
64 E VA BEACH    1550   56 57  300/  8/ 10 1012.1    4/ 6   3/ 6
DUCK             1548   56 46  240/ 12/ 15 1012.2
2 E DUCK         1530      45                N/A     1/10
OREGON INLET     1542   53 51  210/ 10/ 11 1012.9
13E OREGON INLT  NOT AVBL
HATTERAS CG      1548          230/ 12/ 17 1013.2
DIAMOND BUOY     1550   68 72  260/ 25/ 29 1013.0    9/ 7
CAPE LOOKOUT     1500   62     240/ 14/ 18 1014.6
BEAUFORT LAB     1548          260/  5/ 12 1014.1
30 SE NEW RVR IN 1508   62 61  260/ 19/ 25 1015.6
30 SE NEW RVR IN 1543      62                N/A     6/ 6
27 SE WRIGHTSVLE 1508   66 69  230/ 23/ 33 1014.9
5 SE WRIGHTSVLE  NOT AVBL
225 S CAPE HAT   1550   70 71  240/ 17/ 25 1018.6    6/ 6   2/10
41 SE CHARLESTON 1450   69 71  250/ 17/ 23 1018.9    4/ 5   2/ 9

$$




USA.gov is the U.S. government's official web portal to all federal, state and local government web resources and services.